{"data":{"norad_id":59142,"epoch":"2026-06-11T15:13:55.021440Z","epoch_age_seconds":8972646,"freshness":"OLD","line1":"1 59142U 24043AW  26162.63466460  .03928269  25839-5  62561-3 0  9990","line2":"2 59142  97.5165 323.6184 0013165 265.7642  94.2149 16.33536531127736","mean_motion":16.33536531,"eccentricity":0.0013165,"inclination_deg":97.5165,"raan_deg":323.6184,"arg_perigee_deg":265.7642,"mean_anomaly_deg":94.2149,"bstar":0.00062561,"rev_number":12773,"period_min":88.152298566502,"perigee_km":174.41508688449,"apogee_km":191.69069987376,"semimajor_km":6561.1898933791,"source":"CELESTRAK","updated_at":"2026-06-12T09:00:30.635436Z"}}